Vorticity
9 9 22 11 6 17 12 5 7 8 15 36 1 17 14 24 25 29 27 34 44 35 29 16 18 25 34 28 38 12 33 8 16 8 8 7 7 7 11 9 7 7 9 7
11 18 9 5 14 13 4 4 10 6 26 9 4 3 16 27 15 26 27 14 9 10 20 31 24 12 43 28 51 29 -1 18 8 7 8 8 8 12 17 -3 5 11 8 4
12 17 6 7 15 8 2 10 6 1 1 3 20 13 15 29 10 14 28 32 26 23 20 20 32 14 20 24 36 12 20 9 12 10 9 4 14 3 26 -19 11 2 4 3
11 11 10 8 4 5 2 3 5 -1 3 7 2 24 14 22 18 11 13 11 16 13 14 34 -3 15 49 20 14 12 11 12 8 6 7 1 13 17 -16 24 11 28 6 4
8 9 14 6 11 3 4 4 9 -2 9 15 4 10 18 12 23 18 17 15 8 7 21 12 3 12 11 10 8 -1 3 6 12 6 3 13 -1 35 -11 7 34 -27 10 25
9 13 8 9 4 -2 3 2 6 7 6 3 -3 -2 40 20 16 16 18 21 4 11 15 18 20 13 14 5 17 0 18 15 6 31 10 -7 22 27 23 5 24 17 8 6
6 12 6 3 8 -6 4 3 7 8 8 4 10 8 -2 37 25 12 6 11 10 14 13 15 14 20 10 17 14 15 6 20 2 6 31 -7 -25 14 20 19 7 3 3 5
4 6 3 4 7 8 11 6 9 7 12 10 10 9 9 2 11 29 1 4 6 11 -1 21 4 20 32 -9 -2 29 13 9 27 43 11 22 19 10 5 1 2 2 4 6
3 6 7 4 7 10 6 8 8 6 10 9 7 11 13 9 6 10 9 32 27 16 8 15 2 34 -11 1 -0 7 11 18 12 7 7 6 1 1 -0 2 6 7 10 12
2 7 8 6 4 3 1 5 8 7 9 10 3 10 7 12 10 8 11 2 5 8 32 26 17 21 22 13 20 12 8 9 11 6 2 1 1 3 7 8 11 12 11 10
5 5 4 2 1 4 8 6 5 5 9 13 4 1 9 16 9 14 11 7 3 7 12 9 9 9 8 8 6 9 9 3 3 0 1 3 7 10 10 10 9 10 11 9
6 4 6 0 4 10 10 8 7 7 11 11 7 1 10 13 30 10 13 10 13 11 6 4 3 8 6 4 4 7 8 1 2 5 9 10 10 10 8 9 11 10 5 6
7 7 11 14 13 9 8 9 10 9 10 3 1 9 7 15 12 16 7 11 4 1 5 6 10 6 5 9 4 3 4 6 9 10 9 10 9 9 10 10 6 7 8 6
19 16 16 8 9 11 13 12 12 12 10 8 7 7 5 11 10 13 16 11 13 10 9 10 11 8 4 4 6 9 10 9 10 8 7 8 10 12 9 7 8 5 5 5
8 8 8 8 11 14 11 11 17 4 10 6 4 8 8 3 11 7 13 -6 12 12 9 3 4 5 6 8 9 6 9 8 7 8 10 12 12 6 7 8 7 6 7 5
16 12 10 9 8 9 8 9 16 11 2 10 3 7 4 4 1 14 19 10 10 5 2 5 6 6 9 7 7 9 8 7 9 10 15 8 6 7 9 8 6 2 4 6
9 9 12 13 16 8 9 7 13 15 7 7 -13 14 10 35 10 16 9 6 4 2 7 4 8 7 7 8 9 9 7 7 10 15 6 7 7 8 6 1 4 5 5 2
6 7 9 8 6 7 9 13 6 14 -1 2 10 14 21 14 11 17 15 6 7 6 6 8 6 8 9 10 9 7 8 12 13 7 8 7 7 2 3 5 5 4 3 4
6 10 14 18 19 16 11 10 20 9 6 7 3 8 15 9 14 7 6 6 4 5 8 9 8 10 9 10 8 8 13 12 7 10 7 7 6 6 4 1 2 8 -0 10
12 10 5 10 5 9 10 7 14 12 13 9 10 12 22 11 6 8 4 3 4 7 9 11 9 11 10 9 7 11 12 7 10 10 7 7 5 7 -5 10 7 -2 18 52
9 9 20 18 15 23 28 18 27 -9 13 1 1 20 9 10 7 4 2 5 8 10 10 9 11 11 9 6 10 13 7 10 9 11 6 5 6 -3 5 3 11 22 50 55
18 9 2 23 16 25 4 11 -2 7 16 -4 20 22 11 4 3 3 8 10 10 9 9 11 11 7 7 7 15 8 9 7 12 6 1 5 12 -5 1 10 29 48 54 49
22 13 8 7 14 7 6 17 2 15 4 19 9 4 3 -0 8 8 9 8 8 9 10 10 7 8 6 13 11 7 7 11 6 5 5 1 -1 7 2 26 50 42 21 19
8 11 14 21 7 7 5 9 10 9 10 6 6 4 6 9 11 9 10 9 9 10 10 9 7 6 9 15 8 6 13 6 4 1 -1 -2 9 -3 13 52 27 13 28 17
3 7 5 9 14 17 15 13 7 2 -1 -2 3 16 12 10 12 11 10 9 9 8 7 8 6 8 13 14 7 12 8 8 6 3 7 -4 7 6 39 45 9 28 17 11
15 8 3 5 4 2 2 7 12 17 21 17 15 10 9 9 11 10 8 8 9 4 12 7 7 11 16 9 12 9 7 10 8 2 5 1 -2 21 55 20 25 16 16 8
2 5 11 17 16 12 9 8 10 6 4 10 15 10 5 6 8 7 7 8 4 12 8 6 10 15 12 12 8 1 8 9 6 4 -3 5 8 30 54 10 20 17 11 7
Height
5640 5640 5641 5640 5640 5639 5638 5636 5630 5629 5622 5616 5609 5601 5589 5576 5565 5554 5545 5540 5540 5542 5543 5544 5545 5548 5550 5558 5569 5581 5591 5603 5614 5623 5632 5640 5645 5651 5654 5656 5657 5658 5658 5658
5636 5636 5637 5636 5636 5637 5635 5632 5628 5624 5619 5613 5604 5595 5585 5574 5564 5553 5543 5538 5536 5536 5538 5539 5538 5541 5546 5553 5565 5567 5589 5601 5611 5622 5630 5636 5641 5643 5647 5649 5649 5650 5651 5648
5633 5633 5634 5635 5635 5635 5633 5629 5626 5622 5617 5610 5601 5592 5583 5573 5565 5557 5549 5542 5538 5538 5538 5537 5539 5543 5549 5557 5565 5580 5594 5603 5611 5619 5626 5633 5634 5638 5635 5639 5640 5639 5640 5638
5630 5631 5632 5633 5634 5632 5630 5627 5623 5620 5615 5607 5601 5591 5583 5574 5568 5561 5555 5551 5548 5546 5546 5545 5547 5550 5556 5566 5574 5585 5595 5602 5608 5614 5621 5624 5626 5628 5628 5631 5633 5632 5630 5629
5628 5628 5630 5631 5631 5629 5628 5627 5622 5620 5614 5608 5602 5593 5586 5579 5573 5567 5562 5559 5556 5555 5555 5555 5556 5559 5563 5571 5580 5589 5596 5601 5606 5610 5615 5618 5623 5622 5624 5626 5624 5622 5621 5618
5625 5626 5627 5628 5628 5627 5626 5624 5621 5618 5613 5609 5603 5596 5589 5585 5578 5574 5570 5567 5565 5564 5563 5564 5566 5569 5574 5578 5580 5585 5596 5599 5603 5604 5612 5615 5615 5617 5619 5619 5617 5614 5611 5607
5623 5623 5625 5625 5625 5625 5624 5624 5618 5616 5613 5609 5604 5600 5594 5588 5583 5579 5576 5575 5574 5573 5572 5573 5575 5576 5579 5583 5586 5590 5594 5598 5601 5605 5607 5610 5609 5611 5611 5609 5607 5604 5601 5598
5620 5621 5623 5622 5623 5623 5621 5619 5617 5615 5612 5608 5605 5601 5597 5593 5589 5585 5581 5581 5581 5580 5578 5577 5579 5579 5581 5586 5589 5591 5595 5598 5600 5600 5603 5604 5605 5605 5605 5602 5598 5595 5591 5588
5617 5618 5618 5618 5619 5619 5618 5616 5615 5613 5610 5608 5605 5602 5599 5595 5592 5590 5587 5585 5584 5583 5583 5583 5585 5585 5586 5587 5587 5590 5594 5596 5597 5597 5598 5598 5597 5599 5597 5593 5589 5586 5583 5579
5612 5613 5614 5614 5615 5615 5615 5614 5613 5611 5609 5607 5604 5602 5600 5597 5594 5592 5590 5589 5588 5587 5585 5585 5585 5586 5587 5588 5589 5591 5593 5595 5596 5596 5596 5596 5596 5593 5589 5585 5583 5579 5573 5567
5607 5608 5610 5610 5610 5610 5611 5611 5610 5609 5607 5605 5603 5601 5599 5597 5595 5594 5592 5590 5589 5589 5589 5588 5587 5588 5589 5589 5590 5591 5591 5592 5592 5592 5592 5590 5587 5584 5581 5577 5572 5567 5562 5556
5601 5603 5604 5604 5605 5605 5606 5606 5606 5605 5604 5603 5602 5600 5597 5595 5593 5593 5592 5591 5590 5590 5589 5588 5589 5589 5589 5589 5589 5590 5591 5590 5588 5587 5585 5582 5579 5576 5572 5567 5563 5558 5552 5546
5596 5597 5599 5600 5600 5600 5600 5600 5601 5601 5601 5601 5600 5598 5596 5594 5593 5592 5591 5591 5590 5590 5590 5589 5589 5589 5589 5588 5588 5587 5586 5584 5583 5581 5579 5576 5572 5568 5563 5559 5553 5548 5542 5536
5590 5591 5592 5593 5594 5594 5595 5595 5596 5597 5598 5598 5597 5596 5595 5594 5592 5591 5591 5590 5590 5590 5590 5589 5589 5588 5588 5587 5585 5584 5582 5580 5578 5575 5571 5568 5564 5560 5555 5551 5545 5539 5532 5523
5582 5583 5585 5587 5588 5590 5590 5590 5591 5593 5594 5594 5594 5593 5593 5592 5591 5589 5589 5589 5588 5588 5588 5587 5587 5586 5585 5583 5582 5580 5577 5574 5572 5569 5565 5561 5557 5553 5548 5543 5536 5528 5519 5509
5575 5576 5579 5581 5583 5584 5585 5586 5587 5589 5590 5590 5589 5589 5589 5588 5587 5587 5587 5587 5587 5587 5586 5586 5585 5583 5581 5579 5577 5574 5572 5569 5566 5562 5559 5555 5551 5546 5540 5533 5525 5516 5506 5495
5571 5573 5574 5575 5577 5578 5580 5582 5583 5584 5586 5585 5584 5585 5583 5581 5583 5584 5584 5584 5585 5584 5584 5583 5581 5579 5577 5575 5572 5570 5567 5563 5560 5556 5552 5548 5543 5537 5531 5523 5514 5503 5491 5479
5567 5568 5569 5571 5571 5572 5574 5575 5578 5580 5581 5580 5581 5580 5579 5579 5580 5580 5581 5582 5582 5582 5580 5579 5577 5575 5573 5570 5568 5565 5561 5558 5554 5550 5546 5541 5535 5529 5521 5512 5501 5489 5475 5460
5562 5563 5564 5564 5564 5566 5567 5569 5572 5574 5576 5576 5576 5577 5576 5577 5577 5578 5579 5579 5579 5577 5576 5574 5572 5570 5568 5565 5562 5559 5555 5551 5547 5543 5538 5533 5526 5519 5510 5500 5488 5473 5458 5439
5557 5557 5558 5559 5560 5561 5563 5565 5567 5569 5570 5571 5572 5573 5573 5573 5574 5575 5575 5575 5574 5572 5570 5569 5567 5564 5562 5559 5556 5552 5548 5545 5540 5535 5530 5524 5517 5509 5500 5488 5473 5456 5436 5418
5553 5553 5555 5554 5555 5555 5557 5560 5563 5564 5565 5567 5568 5568 5568 5569 5570 5571 5570 5570 5568 5567 5565 5563 5560 5558 5555 5553 5549 5545 5542 5537 5533 5527 5522 5515 5507 5498 5488 5474 5458 5438 5419 5405
5547 5549 5551 5551 5551 5552 5554 5556 5558 5559 5560 5562 5563 5563 5564 5565 5565 5565 5564 5563 5562 5560 5558 5556 5554 5552 5549 5546 5543 5539 5535 5530 5525 5520 5513 5506 5498 5488 5476 5461 5443 5428 5414 5404
5544 5545 5546 5547 5549 5550 5551 5552 5554 5555 5556 5557 5558 5558 5559 5560 5560 5559 5558 5557 5555 5554 5552 5550 5548 5545 5542 5539 5535 5532 5527 5523 5518 5512 5505 5497 5488 5477 5465 5450 5436 5425 5417 5410
5540 5541 5541 5542 5543 5545 5546 5548 5548 5549 5550 5552 5552 5553 5553 5553 5552 5552 5551 5550 5549 5548 5546 5544 5541 5538 5535 5532 5528 5525 5520 5515 5510 5504 5497 5488 5479 5468 5455 5442 5433 5426 5419 5414
5536 5537 5537 5538 5538 5539 5540 5541 5542 5543 5544 5545 5545 5546 5546 5545 5546 5545 5544 5543 5542 5541 5539 5537 5534 5531 5528 5525 5521 5517 5513 5508 5502 5495 5488 5480 5470 5459 5446 5437 5430 5425 5420 5416
5531 5531 5532 5532 5533 5534 5534 5535 5535 5536 5537 5538 5538 5539 5539 5539 5538 5538 5537 5536 5535 5534 5532 5530 5527 5524 5521 5518 5514 5511 5506 5500 5494 5488 5480 5472 5461 5450 5439 5432 5427 5423 5419 5416
5524 5524 5525 5525 5526 5527 5527 5528 5528 5529 5529 5530 5531 5531 5531 5531 5531 5530 5530 5529 5528 5526 5524 5522 5519 5516 5514 5511 5508 5504 5499 5493 5486 5480 5472 5463 5453 5442 5433 5428 5424 5421 5418 5415